Location: Longueuil
(45.5369°N, 73.5107°W)
Time: 21:18:35
(UTC-05:00)

ISS - Pass Details

Date: 01 December 2024
Orbit: 411 x 421 km, 51.6° (Epoch: 03 December)

Event Time Altitude Azimuth Distance (km) Brightness Sun altitude
Rises 17:07:54 0° 298° (WNW) 2,374 0.7 -9.6°
Reaches altitude 10° 17:10:01 10° 299° (WNW) 1,508 -0.3 -10.0°
Maximum altitude 17:13:24 90° 201° (SSW) 426 -3.8 -10.5°
Drops below altitude 10° 17:16:47 10° 120° (ESE) 1,500 -1.3 -11.1°
Enters shadow 17:17:20 - 120° (ESE) 1,724 -1.0 -11.1°
